Location: G�migny
(47.9646°N, 1.6950°E)
Time: 20:22:39
(UTC+00:00)

Cosmos 1703 - Pass Details

Date: 23 October 2019
Orbit: 523 x 542 km, 82.5° (Epoch: 18 November)

Event Time Altitude Azimuth Distance (km) Brightness Sun altitude
Rises 17:52:04 0° 346° (NNW) 2,693 7.0 -10.9°
Reaches altitude 10° 17:54:16 10° 341° (NNW) 1,793 6.1 -11.3°
Maximum altitude 17:58:06 51° 265° (W) 673 4.2 -11.9°
Drops below altitude 10° 18:01:52 10° 189° (S) 1,768 6.1 -12.6°
Sets 18:04:01 0° 185° (S) 2,649 6.9 -12.9°
